Miscellaneous Local Product
Issued by NWS Hastings, NE

Home | Current Version | Previous Version | Graphics & Text | Print | Product List | Glossary On
Versions: 1 2 3 4 5 6 7 8 9 10 11 12 13 14 15 16 17 18 19 20 21 22 23 24 25 26 27 28 29 30 31 32 33 34 35 36 37 38 39 40 41 42 43 44 45 46 47 48 49 50
000
AXUS43 KGID 301702
MISGRI

GID CWA HOURLY WEATHER ROUNDUP
NATIONAL WEATHER SERVICE HASTINGS NE
1200 PM CDT TUE SEP 30 2014

NOTE: "FAIR" INDICATES FEW OR NO CLOUDS BELOW 12,000 FEET WITH NO
SIGNIFICANT WEATHER AND/OR OBSTRUCTIONS TO VISIBILITY.

...SOUTH CENTRAL NEBRASKA...

CITY           SKY/WX    TMP DP  RH WIND       PRES   REMARKS
GRAND ISLAND   MOSUNNY   73  59  61 S15       29.80S
HASTINGS       LGT RAIN  68  58  70 S9        29.81S
KEARNEY        SUNNY     73  48  40 SE10G17   29.80S
ORD            SUNNY     71  49  45 S17       29.74F
YORK           LGT RAIN  64  63  94 S13       29.83F
AURORA         PTSUNNY   67  62  82 S12       29.81F
LEXINGTON      SUNNY     68  55  62 S14       29.79F
HOLDREGE       SUNNY     72  46  40 SE9       29.80F
HEBRON         HVY RAIN  63  60  90 S9        29.84F

...NEBRASKA PANHANDLE...

CITY           SKY/WX    TMP DP  RH WIND       PRES   REMARKS
CHADRON        CLOUDY    58  48  69 W26G41    29.61R
ALLIANCE       CLOUDY    60  49  66 W22       29.71S
SCOTTSBLUFF    CLOUDY    65  44  46 W28G37    29.74R
SIDNEY         MOSUNNY   67  39  35 W28G38    29.81S

...WESTERN AND NORTH CENTRAL NEBRASKA...

CITY           SKY/WX    TMP DP  RH WIND       PRES   REMARKS
VALENTINE      PTSUNNY   65  46  50 SW30G46   29.60S
AINSWORTH      MOSUNNY   71  44  37 SW29G40   29.64F
ONEILL         SUNNY     72  53  49 S20G25    29.72F
BROKEN BOW     SUNNY     72  50  45 S16G26    29.76S
IMPERIAL       MOSUNNY   68  48  48 S16       29.80F
NORTH PLATTE   MOSUNNY   72  45  37 SW17G24   29.76S
MCCOOK         SUNNY     71  49  45 S9        29.80F

...EASTERN NEBRASKA...

CITY           SKY/WX    TMP DP  RH WIND       PRES   REMARKS
NORFOLK        PTSUNNY   70  62  76 S18G26    29.79F
SO SIOUX CITY  LGT RAIN  64  60  87 SE8       29.85F FOG
TEKAMAH        CLOUDY    68  60  75 SE10      29.86F
COLUMBUS       CLOUDY    66  61  82 S14       29.83F
ALBION         MOSUNNY   73  51  46 S10       29.77F
OMAHA EPPLEY   CLOUDY    73  60  63 S8        29.87F
OFFUTT AFB     CLOUDY    73  64  73 S6        29.86F
MILLARD        CLOUDY    71  61  69 SW3       29.86F
LINCOLN        LGT RAIN  65  62  90 S8        29.86F
NEBRASKA CITY  PTSUNNY   76  56  51 SW8       29.86F
BEATRICE       CLOUDY    68  61  80 S6        29.85F
FALLS CITY     LGT RAIN  82  60  47 S14G23    29.85F

...NORTHERN KANSAS...

CITY           SKY/WX    TMP DP  RH WIND       PRES   REMARKS
GOODLAND       SUNNY     67  46  47 S14       29.84F
HILL CITY      CLOUDY    71  59  65 S8        29.80F
NORTON         SUNNY     73  39  29 E7        29.80F
PHILLIPSBURG   CLOUDY    72  59  64 SE6       29.80S
SMITH CENTER   PTSUNNY   70  61  73 SE14      29.82S
BELOIT         CLOUDY    64  63  94 SE6       29.82S
HAYS           CLOUDY    68  59  73 S14       29.81S
RUSSELL        CLOUDY    67  64  90 S8        29.81F
CONCORDIA      TSTM      64  63  96 S10G21    29.84F VSB 1
SALINA         RAIN      68  64  87 S8        29.85F FOG
TOPEKA         SUNNY     85  61  44 S17G24    29.87F



USA.gov is the U.S. government's official web portal to all federal, state and local government web resources and services.